Location: Gu�tanj
(46.5431°N, 14.9692°E)
Time: 14:52:22
(UTC+00:00)

USA 186 - Pass Details

Date: 03 March 2021
Orbit: 261 x 430 km, 96.9° (Epoch: 11 April)

Event Time Altitude Azimuth Distance (km) Brightness Sun altitude
Exits shadow 18:28:29 22° 360° (N) 714 3.0 -17.8°
Drops below altitude 10° 18:29:33 10° 354° (N) 1,168 4.2 -18.0°
Sets 18:31:28 0° 351° (N) 2,029 5.5 -18.3°
